Location: Newport
(44.6370°N, 124.0520°W)
Time: 10:03:41
(UTC-08:00)

OTV 5 (USA 277) - Pass Details

Date: 14 October 2017
Orbit: 404 x 417 km, 43.0° (Epoch: 07 September)

Event Time Altitude Azimuth Distance (km) Brightness Sun altitude
Rises 21:15:21 0° 272° (W) 2,356 ? -29.4°
Reaches altitude 10° 21:17:29 10° 269° (W) 1,492 ? -29.8°
Enters shadow 21:18:00 14° 267° (W) 1,286 ? -29.9°
